Location: Unspecified
(0.0000°N, 0.0000°E)
Time: 04:05:20
(UTC+00:00)

Shinsei - Pass Details

Date: 20 May 2026
Orbit: 869 x 1860 km, 32.1° (Epoch: 10 June)

Event Time Altitude Azimuth Distance (km) Brightness Sun altitude
Exits shadow 01:06:23 17° 26° (NNE) 3,635 12.6 -63.7°
Drops below altitude 10° 01:08:39 10° 33° (NNE) 4,163 13.0 -63.4°
Sets 01:12:19 0° 41° (NE) 5,089 13.6 -62.8°
